Time,TemperatureF,DewpointF,PressureIn,WindDirection,WindDirectionDegrees,WindSpeedMPH,WindSpeedGustMPH,Humidity,HourlyPrecipIn,Conditions,Clouds,dailyrainin,SoftwareType,DateUTC
2013-01-20 00:04:00,71.0,-99.9,30.13,NE,48,6.0,8.0,-999,-99.99,,,-99.99,,2013-01-20 05:04:00,
2013-01-20 00:12:00,71.0,-99.9,30.12,NE,46,7.0,8.0,-999,-99.99,,,-99.99,,2013-01-20 05:12:00,
2013-01-20 00:23:00,71.0,-99.9,30.12,NE,44,6.0,8.0,-999,-99.99,,,-99.99,,2013-01-20 05:23:00,
2013-01-20 00:33:00,71.0,-99.9,30.12,NE,47,5.0,7.0,-999,-99.99,,,-99.99,,2013-01-20 05:33:00,
2013-01-20 00:43:00,71.0,-99.9,30.12,NE,47,6.0,8.0,-999,-99.99,,,-99.99,,2013-01-20 05:43:00,
2013-01-20 00:53:00,71.0,-99.9,30.11,NNE,27,6.0,8.0,-999,-99.99,,,-99.99,,2013-01-20 05:53:00,
2013-01-20 01:02:00,71.0,-99.9,30.11,NNE,25,5.0,6.0,-999,-99.99,,,-99.99,,2013-01-20 06:02:00,
2013-01-20 01:12:00,71.0,-99.9,30.12,NNE,31,5.0,6.0,-999,-99.99,,,-99.99,,2013-01-20 06:12:00,
2013-01-20 01:22:00,71.0,-99.9,30.12,NNE,26,4.0,5.0,-999,-99.99,,,-99.99,,2013-01-20 06:22:00,
2013-01-20 01:34:00,71.0,-99.9,30.11,NNE,22,5.0,6.0,-999,-99.99,,,-99.99,,2013-01-20 06:34:00,
2013-01-20 01:43:00,71.0,-99.9,30.10,NNE,23,5.0,6.0,-999,-99.99,,,-99.99,,2013-01-20 06:43:00,
2013-01-20 01:53:00,71.0,-99.9,30.10,NNE,29,5.0,6.0,-999,-99.99,,,-99.99,,2013-01-20 06:53:00,
2013-01-20 02:02:00,71.0,-99.9,30.10,NNE,32,5.0,6.0,-999,-99.99,,,-99.99,,2013-01-20 07:02:00,
2013-01-20 02:12:00,71.0,-99.9,30.11,NE,36,4.0,6.0,-999,-99.99,,,-99.99,,2013-01-20 07:12:00,
2013-01-20 02:22:00,71.0,-99.9,30.10,NNE,27,5.0,6.0,-999,-99.99,,,-99.99,,2013-01-20 07:22:00,
2013-01-20 02:32:00,71.0,-99.9,30.10,NNE,22,4.0,6.0,-999,-99.99,,,-99.99,,2013-01-20 07:32:00,
2013-01-20 02:43:00,71.0,-99.9,30.10,NNE,24,4.0,6.0,-999,-99.99,,,-99.99,,2013-01-20 07:43:00,
2013-01-20 02:52:00,71.0,-99.9,30.10,NNE,24,4.0,6.0,-999,-99.99,,,-99.99,,2013-01-20 07:52:00,
2013-01-20 03:02:00,71.0,-99.9,30.10,NNE,23,5.0,6.0,-999,-99.99,,,-99.99,,2013-01-20 08:02:00,
2013-01-20 03:12:00,71.0,-99.9,30.09,NNE,19,5.0,6.0,-999,-99.99,,,-99.99,,2013-01-20 08:12:00,
2013-01-20 03:22:00,71.0,-99.9,30.10,NNE,20,3.0,5.0,-999,-99.99,,,-99.99,,2013-01-20 08:22:00,
2013-01-20 03:32:00,71.0,-99.9,30.10,NNE,21,3.0,5.0,-999,-99.99,,,-99.99,,2013-01-20 08:32:00,
2013-01-20 03:42:00,71.0,-99.9,30.09,North,4,2.0,5.0,-999,-99.99,,,-99.99,,2013-01-20 08:42:00,
2013-01-20 03:53:00,71.0,-99.9,30.09,NNE,27,4.0,5.0,-999,-99.99,,,-99.99,,2013-01-20 08:53:00,
2013-01-20 04:02:00,71.0,-99.9,30.09,NNE,21,3.0,5.0,-999,-99.99,,,-99.99,,2013-01-20 09:02:00,
2013-01-20 04:12:00,71.0,-99.9,30.09,NNE,25,4.0,5.0,-999,-99.99,,,-99.99,,2013-01-20 09:12:00,
2013-01-20 04:22:00,71.0,-99.9,30.09,NNE,23,4.0,5.0,-999,-99.99,,,-99.99,,2013-01-20 09:22:00,
2013-01-20 04:33:00,71.0,-99.9,30.09,NNE,19,3.0,6.0,-999,-99.99,,,-99.99,,2013-01-20 09:33:00,
2013-01-20 04:43:00,71.0,-99.9,30.09,NNE,20,4.0,6.0,-999,-99.99,,,-99.99,,2013-01-20 09:43:00,
2013-01-20 04:53:00,71.0,-99.9,30.09,NNE,16,4.0,6.0,-999,-99.99,,,-99.99,,2013-01-20 09:53:00,
2013-01-20 05:03:00,70.0,-99.9,30.09,NNE,19,5.0,8.0,-999,-99.99,,,-99.99,,2013-01-20 10:03:00,
2013-01-20 05:12:00,70.0,-99.9,30.09,NNE,18,3.0,8.0,-999,-99.99,,,-99.99,,2013-01-20 10:12:00,
2013-01-20 05:23:00,70.0,-99.9,30.10,North,11,2.0,7.0,-999,-99.99,,,-99.99,,2013-01-20 10:23:00,
2013-01-20 05:33:00,70.0,-99.9,30.09,NNE,26,7.0,10.0,-999,-99.99,,,-99.99,,2013-01-20 10:33:00,
2013-01-20 05:42:00,70.0,-99.9,30.09,NNE,24,9.0,11.0,-999,-99.99,,,-99.99,,2013-01-20 10:42:00,
2013-01-20 05:53:00,70.0,-99.9,30.11,NNE,20,7.0,11.0,-999,-99.99,,,-99.99,,2013-01-20 10:53:00,
2013-01-20 06:03:00,70.0,-99.9,30.11,NNE,24,10.0,12.0,-999,-99.99,,,-99.99,,2013-01-20 11:03:00,
2013-01-20 06:12:00,70.0,-99.9,30.10,NE,42,9.0,11.0,-999,-99.99,,,-99.99,,2013-01-20 11:12:00,
2013-01-20 06:22:00,70.0,-99.9,30.09,NE,49,9.0,11.0,-999,-99.99,,,-99.99,,2013-01-20 11:22:00,
2013-01-20 06:33:00,70.0,-99.9,30.10,NE,37,9.0,11.0,-999,-99.99,,,-99.99,,2013-01-20 11:33:00,
2013-01-20 06:43:00,70.0,-99.9,30.10,NE,41,8.0,10.0,-999,-99.99,,,-99.99,,2013-01-20 11:43:00,
2013-01-20 06:54:00,70.0,-99.9,30.11,NE,42,7.0,10.0,-999,-99.99,,,-99.99,,2013-01-20 11:54:00,
2013-01-20 07:03:00,70.0,-99.9,30.11,NE,42,7.0,9.0,-999,-99.99,,,-99.99,,2013-01-20 12:03:00,
2013-01-20 07:13:00,70.0,-99.9,30.11,NE,40,9.0,11.0,-999,-99.99,,,-99.99,,2013-01-20 12:13:00,
2013-01-20 07:23:00,70.0,-99.9,30.11,NE,48,9.0,10.0,-999,-99.99,,,-99.99,,2013-01-20 12:23:00,
2013-01-20 07:34:00,70.0,-99.9,30.11,NE,44,9.0,10.0,-999,-99.99,,,-99.99,,2013-01-20 12:34:00,
2013-01-20 07:43:00,70.0,-99.9,30.11,NE,45,10.0,12.0,-999,-99.99,,,-99.99,,2013-01-20 12:43:00,
2013-01-20 07:53:00,70.0,-99.9,30.12,NE,40,10.0,12.0,-999,-99.99,,,-99.99,,2013-01-20 12:53:00,
2013-01-20 08:03:00,70.0,-99.9,30.12,NE,37,9.0,10.0,-999,-99.99,,,-99.99,,2013-01-20 13:03:00,
2013-01-20 08:12:00,71.0,-99.9,30.12,NE,43,10.0,12.0,-999,-99.99,,,-99.99,,2013-01-20 13:12:00,
2013-01-20 08:23:00,71.0,-99.9,30.12,NE,46,10.0,12.0,-999,-99.99,,,-99.99,,2013-01-20 13:23:00,
2013-01-20 08:33:00,71.0,-99.9,30.13,NE,47,8.0,10.0,-999,-99.99,,,-99.99,,2013-01-20 13:33:00,
2013-01-20 08:43:00,71.0,-99.9,30.14,NE,54,7.0,11.0,-999,-99.99,,,-99.99,,2013-01-20 13:43:00,
2013-01-20 08:53:00,71.0,-99.9,30.14,NE,43,6.0,9.0,-999,-99.99,,,-99.99,,2013-01-20 13:53:00,
2013-01-20 09:03:00,71.0,-99.9,30.14,NE,34,8.0,9.0,-999,-99.99,,,-99.99,,2013-01-20 14:03:00,
2013-01-20 09:12:00,71.0,-99.9,30.15,NE,50,6.0,8.0,-999,-99.99,,,-99.99,,2013-01-20 14:12:00,
2013-01-20 09:23:00,71.0,-99.9,30.16,NE,43,6.0,8.0,-999,-99.99,,,-99.99,,2013-01-20 14:23:00,
2013-01-20 09:33:00,71.0,-99.9,30.16,NNE,29,5.0,7.0,-999,-99.99,,,-99.99,,2013-01-20 14:33:00,
2013-01-20 09:43:00,71.0,-99.9,30.16,NNE,26,5.0,6.0,-999,-99.99,,,-99.99,,2013-01-20 14:43:00,
2013-01-20 09:53:00,72.0,-99.9,30.17,North,7,5.0,7.0,-999,-99.99,,,-99.99,,2013-01-20 14:53:00,
2013-01-20 10:04:00,72.0,-99.9,30.17,NNE,16,4.0,6.0,-999,-99.99,,,-99.99,,2013-01-20 15:04:00,
2013-01-20 10:13:00,71.0,-99.9,30.17,NNE,19,5.0,7.0,-999,-99.99,,,-99.99,,2013-01-20 15:13:00,
2013-01-20 10:23:00,71.0,-99.9,30.17,NNE,24,6.0,7.0,-999,-99.99,,,-99.99,,2013-01-20 15:23:00,
2013-01-20 10:33:00,71.0,-99.9,30.17,NNE,27,6.0,8.0,-999,-99.99,,,-99.99,,2013-01-20 15:33:00,
2013-01-20 10:43:00,71.0,-99.9,30.16,NE,37,7.0,8.0,-999,-99.99,,,-99.99,,2013-01-20 15:43:00,
2013-01-20 10:53:00,71.0,-99.9,30.16,NNE,25,7.0,8.0,-999,-99.99,,,-99.99,,2013-01-20 15:53:00,
2013-01-20 11:03:00,71.0,-99.9,30.16,NNE,22,8.0,9.0,-999,-99.99,,,-99.99,,2013-01-20 16:03:00,
2013-01-20 11:12:00,71.0,-99.9,30.16,NNE,23,7.0,9.0,-999,-99.99,,,-99.99,,2013-01-20 16:12:00,
2013-01-20 11:23:00,71.0,-99.9,30.15,NE,41,8.0,9.0,-999,-99.99,,,-99.99,,2013-01-20 16:23:00,
2013-01-20 11:33:00,71.0,-99.9,30.15,NE,36,6.0,8.0,-999,-99.99,,,-99.99,,2013-01-20 16:33:00,
2013-01-20 11:43:00,71.0,-99.9,30.14,NNE,26,7.0,8.0,-999,-99.99,,,-99.99,,2013-01-20 16:43:00,
2013-01-20 11:53:00,71.0,-99.9,30.14,NNE,32,6.0,8.0,-999,-99.99,,,-99.99,,2013-01-20 16:53:00,
2013-01-20 12:03:00,71.0,-99.9,30.13,NE,42,7.0,8.0,-999,-99.99,,,-99.99,,2013-01-20 17:03:00,
2013-01-20 12:13:00,70.0,-99.9,30.12,NNE,32,6.0,7.0,-999,-99.99,,,-99.99,,2013-01-20 17:13:00,
2013-01-20 12:23:00,70.0,-99.9,30.12,NNE,28,6.0,8.0,-999,-99.99,,,-99.99,,2013-01-20 17:23:00,
2013-01-20 12:33:00,70.0,-99.9,30.11,NNE,29,6.0,7.0,-999,-99.99,,,-99.99,,2013-01-20 17:33:00,
2013-01-20 12:43:00,70.0,-99.9,30.11,NNE,29,6.0,7.0,-999,-99.99,,,-99.99,,2013-01-20 17:43:00,
2013-01-20 12:53:00,70.0,-99.9,30.10,NNE,25,5.0,7.0,-999,-99.99,,,-99.99,,2013-01-20 17:53:00,
2013-01-20 13:03:00,71.0,-99.9,30.10,NNE,26,6.0,6.0,-999,-99.99,,,-99.99,,2013-01-20 18:03:00,
2013-01-20 13:13:00,71.0,-99.9,30.10,NNE,21,5.0,7.0,-999,-99.99,,,-99.99,,2013-01-20 18:13:00,
2013-01-20 13:24:00,71.0,-99.9,30.09,NNE,21,4.0,6.0,-999,-99.99,,,-99.99,,2013-01-20 18:24:00,
2013-01-20 13:33:00,71.0,-99.9,30.08,NNE,18,3.0,6.0,-999,-99.99,,,-99.99,,2013-01-20 18:33:00,
2013-01-20 13:43:00,72.0,-99.9,30.08,NNE,18,5.0,8.0,-999,-99.99,,,-99.99,,2013-01-20 18:43:00,
2013-01-20 13:53:00,71.0,-99.9,30.08,NNE,24,6.0,7.0,-999,-99.99,,,-99.99,,2013-01-20 18:53:00,
2013-01-20 14:03:00,71.0,-99.9,30.08,NNE,19,5.0,7.0,-999,-99.99,,,-99.99,,2013-01-20 19:03:00,
2013-01-20 14:12:00,72.0,-99.9,30.07,NNE,26,5.0,7.0,-999,-99.99,,,-99.99,,2013-01-20 19:12:00,
2013-01-20 14:23:00,72.0,-99.9,30.06,NNE,23,5.0,7.0,-999,-99.99,,,-99.99,,2013-01-20 19:23:00,
2013-01-20 14:33:00,72.0,-99.9,30.06,NNE,22,6.0,7.0,-999,-99.99,,,-99.99,,2013-01-20 19:33:00,
2013-01-20 14:43:00,72.0,-99.9,30.06,NNE,20,5.0,8.0,-999,-99.99,,,-99.99,,2013-01-20 19:43:00,
2013-01-20 14:53:00,73.0,-99.9,30.06,NNE,12,4.0,8.0,-999,-99.99,,,-99.99,,2013-01-20 19:53:00,
2013-01-20 15:03:00,73.0,-99.9,30.06,NNE,13,3.0,6.0,-999,-99.99,,,-99.99,,2013-01-20 20:03:00,
2013-01-20 15:12:00,73.0,-99.9,30.06,NNE,16,4.0,7.0,-999,-99.99,,,-99.99,,2013-01-20 20:12:00,
2013-01-20 15:23:00,73.0,-99.9,30.05,NNE,12,4.0,7.0,-999,-99.99,,,-99.99,,2013-01-20 20:23:00,
2013-01-20 15:33:00,73.0,-99.9,30.05,NNE,12,4.0,7.0,-999,-99.99,,,-99.99,,2013-01-20 20:33:00,
2013-01-20 15:43:00,73.0,-99.9,30.05,NNE,23,3.0,5.0,-999,-99.99,,,-99.99,,2013-01-20 20:43:00,
2013-01-20 15:54:00,73.0,-99.9,30.04,NNE,23,6.0,7.0,-999,-99.99,,,-99.99,,2013-01-20 20:54:00,
2013-01-20 16:04:00,73.0,-99.9,30.04,NNE,23,6.0,8.0,-999,-99.99,,,-99.99,,2013-01-20 21:04:00,
2013-01-20 16:13:00,73.0,-99.9,30.04,NNE,20,5.0,7.0,-999,-99.99,,,-99.99,,2013-01-20 21:13:00,
2013-01-20 16:23:00,74.0,-99.9,30.04,NNE,13,4.0,7.0,-999,-99.99,,,-99.99,,2013-01-20 21:23:00,
2013-01-20 16:34:00,74.0,-99.9,30.05,NNE,19,2.0,7.0,-999,-99.99,,,-99.99,,2013-01-20 21:34:00,
2013-01-20 16:43:00,74.0,-99.9,30.05,NNE,16,3.0,6.0,-999,-99.99,,,-99.99,,2013-01-20 21:43:00,
2013-01-20 16:54:00,74.0,-99.9,30.05,NNE,18,3.0,6.0,-999,-99.99,,,-99.99,,2013-01-20 21:54:00,
2013-01-20 17:03:00,73.0,-99.9,30.05,NNE,24,4.0,5.0,-999,-99.99,,,-99.99,,2013-01-20 22:03:00,
2013-01-20 17:13:00,73.0,-99.9,30.05,NNE,21,5.0,6.0,-999,-99.99,,,-99.99,,2013-01-20 22:13:00,
2013-01-20 17:23:00,73.0,-99.9,30.04,NNE,24,6.0,6.0,-999,-99.99,,,-99.99,,2013-01-20 22:23:00,
2013-01-20 17:34:00,73.0,-99.9,30.04,North,11,3.0,7.0,-999,-99.99,,,-99.99,,2013-01-20 22:34:00,
2013-01-20 17:43:00,73.0,-99.9,30.05,NNE,23,4.0,7.0,-999,-99.99,,,-99.99,,2013-01-20 22:43:00,
2013-01-20 17:53:00,73.0,-99.9,30.05,NNE,18,3.0,8.0,-999,-99.99,,,-99.99,,2013-01-20 22:53:00,
2013-01-20 18:03:00,73.0,-99.9,30.05,NNE,17,3.0,6.0,-999,-99.99,,,-99.99,,2013-01-20 23:03:00,
2013-01-20 18:13:00,73.0,-99.9,30.05,NNE,20,4.0,7.0,-999,-99.99,,,-99.99,,2013-01-20 23:13:00,
2013-01-20 18:23:00,73.0,-99.9,30.05,North,10,2.0,5.0,-999,-99.99,,,-99.99,,2013-01-20 23:23:00,
2013-01-20 18:33:00,73.0,-99.9,30.06,NNE,22,3.0,5.0,-999,-99.99,,,-99.99,,2013-01-20 23:33:00,
2013-01-20 18:43:00,73.0,-99.9,30.06,NNE,19,4.0,5.0,-999,-99.99,,,-99.99,,2013-01-20 23:43:00,
2013-01-20 18:53:00,73.0,-99.9,30.06,NNE,25,5.0,6.0,-999,-99.99,,,-99.99,,2013-01-20 23:53:00,
2013-01-20 19:03:00,73.0,-99.9,30.06,NNE,30,4.0,5.0,-999,-99.99,,,-99.99,,2013-01-21 00:03:00,
2013-01-20 19:13:00,73.0,-99.9,30.06,NNE,28,4.0,5.0,-999,-99.99,,,-99.99,,2013-01-21 00:13:00,
2013-01-20 19:23:00,73.0,-99.9,30.06,NNE,16,1.0,2.0,-999,-99.99,,,-99.99,,2013-01-21 00:23:00,
2013-01-20 19:33:00,73.0,-99.9,30.06,NNE,18,1.0,3.0,-999,-99.99,,,-99.99,,2013-01-21 00:33:00,
2013-01-20 19:43:00,73.0,-99.9,30.06,North,358,0.0,2.0,-999,-99.99,,,-99.99,,2013-01-21 00:43:00,
2013-01-20 19:54:00,73.0,-99.9,30.07,NNW,338,1.0,2.0,-999,-99.99,,,-99.99,,2013-01-21 00:54:00,
2013-01-20 20:03:00,73.0,-99.9,30.07,NW,318,0.0,2.0,-999,-99.99,,,-99.99,,2013-01-21 01:03:00,
2013-01-20 20:13:00,73.0,-99.9,30.07,SSW,198,3.0,4.0,-999,-99.99,,,-99.99,,2013-01-21 01:13:00,
2013-01-20 20:23:00,73.0,-99.9,30.08,SSW,203,0.0,2.0,-999,-99.99,,,-99.99,,2013-01-21 01:23:00,
2013-01-20 20:33:00,73.0,-99.9,30.08,NW,317,2.0,3.0,-999,-99.99,,,-99.99,,2013-01-21 01:33:00,
2013-01-20 20:44:00,73.0,-99.9,30.07,WNW,293,3.0,5.0,-999,-99.99,,,-99.99,,2013-01-21 01:44:00,
2013-01-20 20:53:00,72.0,-99.9,30.08,NW,316,4.0,5.0,-999,-99.99,,,-99.99,,2013-01-21 01:53:00,
2013-01-20 21:03:00,72.0,-99.9,30.08,NW,313,4.0,4.0,-999,-99.99,,,-99.99,,2013-01-21 02:03:00,
2013-01-20 21:13:00,72.0,-99.9,30.08,NW,309,4.0,5.0,-999,-99.99,,,-99.99,,2013-01-21 02:13:00,
2013-01-20 21:23:00,72.0,-99.9,30.08,NW,322,4.0,5.0,-999,-99.99,,,-99.99,,2013-01-21 02:23:00,
2013-01-20 21:34:00,71.0,-99.9,30.08,NW,324,5.0,6.0,-999,-99.99,,,-99.99,,2013-01-21 02:34:00,
2013-01-20 21:43:00,72.0,-99.9,30.08,NW,323,4.0,6.0,-999,-99.99,,,-99.99,,2013-01-21 02:43:00,
2013-01-20 21:53:00,72.0,-99.9,30.08,NW,324,6.0,8.0,-999,-99.99,,,-99.99,,2013-01-21 02:53:00,
2013-01-20 22:03:00,72.0,-99.9,30.08,NW,323,7.0,9.0,-999,-99.99,,,-99.99,,2013-01-21 03:03:00,
2013-01-20 22:13:00,72.0,-99.9,30.08,NW,319,6.0,8.0,-999,-99.99,,,-99.99,,2013-01-21 03:13:00,
2013-01-20 22:23:00,72.0,-99.9,30.08,NNW,333,2.0,6.0,-999,-99.99,,,-99.99,,2013-01-21 03:23:00,
2013-01-20 22:33:00,72.0,-99.9,30.08,NNW,327,3.0,7.0,-999,-99.99,,,-99.99,,2013-01-21 03:33:00,
2013-01-20 22:44:00,72.0,-99.9,30.08,NNW,333,4.0,7.0,-999,-99.99,,,-99.99,,2013-01-21 03:44:00,
2013-01-20 22:54:00,72.0,-99.9,30.08,NNW,332,3.0,7.0,-999,-99.99,,,-99.99,,2013-01-21 03:54:00,
2013-01-20 23:03:00,72.0,-99.9,30.08,NNW,335,2.0,7.0,-999,-99.99,,,-99.99,,2013-01-21 04:03:00,
2013-01-20 23:13:00,72.0,-99.9,30.07,NNW,337,3.0,5.0,-999,-99.99,,,-99.99,,2013-01-21 04:13:00,
2013-01-20 23:23:00,72.0,-99.9,30.07,NNW,331,2.0,5.0,-999,-99.99,,,-99.99,,2013-01-21 04:23:00,
2013-01-20 23:33:00,72.0,-99.9,30.07,NNW,339,1.0,4.0,-999,-99.99,,,-99.99,,2013-01-21 04:33:00,
2013-01-20 23:43:00,72.0,-99.9,30.07,NW,326,2.0,4.0,-999,-99.99,,,-99.99,,2013-01-21 04:43:00,
2013-01-20 23:53:00,72.0,-99.9,30.07,NW,325,5.0,7.0,-999,-99.99,,,-99.99,,2013-01-21 04:53:00,